TimeEEST,TemperatureF,Dew PointF,Humidity,Sea Level PressureIn,VisibilityMPH,Wind Direction,Wind SpeedMPH,Gust SpeedMPH,PrecipitationIn,Events,Conditions,WindDirDegrees,DateUTC
12:50 AM,66.2,62.6,88,29.92,6.2,Calm,Calm,-,N/A,,Mostly Cloudy,0,2012-10-14 21:50:00
1:50 AM,66.2,62.6,88,29.92,6.2,Calm,Calm,-,N/A,,Mostly Cloudy,0,2012-10-14 22:50:00
2:50 AM,64.4,60.8,88,29.92,6.2,Calm,Calm,-,N/A,,Partly Cloudy,0,2012-10-14 23:50:00
3:50 AM,64.4,60.8,88,29.92,6.2,Calm,Calm,-,N/A,,Partly Cloudy,0,2012-10-15 00:50:00
4:50 AM,64.4,60.8,88,29.92,6.2,Calm,Calm,-,N/A,,Partly Cloudy,0,2012-10-15 01:50:00
5:50 AM,62.6,59.0,88,29.92,6.2,Calm,Calm,-,N/A,,Partly Cloudy,0,2012-10-15 02:50:00
6:20 AM,62.6,62.6,100,29.92,6.2,Calm,Calm,-,N/A,,Partly Cloudy,0,2012-10-15 03:20:00
6:50 AM,62.6,59.0,88,29.92,6.2,Calm,Calm,-,N/A,,Partly Cloudy,0,2012-10-15 03:50:00
7:20 AM,62.6,59.0,88,29.92,6.2,Calm,Calm,-,N/A,,Partly Cloudy,0,2012-10-15 04:20:00
7:50 AM,62.6,59.0,88,29.92,6.2,Variable,3.5,-,N/A,,Partly Cloudy,0,2012-10-15 04:50:00
8:20 AM,62.6,59.0,88,29.92,6.2,Calm,Calm,-,N/A,,Partly Cloudy,0,2012-10-15 05:20:00
8:50 AM,66.2,60.8,83,29.92,6.2,Variable,3.5,-,N/A,,Partly Cloudy,0,2012-10-15 05:50:00
9:20 AM,69.8,62.6,78,29.92,6.2,Calm,Calm,-,N/A,,Partly Cloudy,0,2012-10-15 06:20:00
9:50 AM,75.2,64.4,69,29.95,6.2,Calm,Calm,-,N/A,,Partly Cloudy,0,2012-10-15 06:50:00
10:20 AM,77.0,66.2,69,29.95,6.2,Calm,Calm,-,N/A,,Scattered Clouds,0,2012-10-15 07:20:00
11:20 AM,77.0,68.0,74,29.95,6.2,SSE,5.8,-,N/A,,Scattered Clouds,160,2012-10-15 08:20:00
11:50 AM,77.0,66.2,69,29.98,6.2,South,5.8,-,N/A,,Scattered Clouds,180,2012-10-15 08:50:00
12:20 PM,78.8,66.2,65,29.98,6.2,South,6.9,-,N/A,,Scattered Clouds,180,2012-10-15 09:20:00
12:50 PM,78.8,66.2,65,29.98,6.2,SW,8.1,-,N/A,,Mostly Cloudy,230,2012-10-15 09:50:00
1:20 PM,78.8,60.8,54,29.98,6.2,WNW,8.1,-,N/A,,Mostly Cloudy,290,2012-10-15 10:20:00
1:50 PM,80.6,60.8,51,29.98,6.2,Variable,3.5,-,N/A,,Scattered Clouds,0,2012-10-15 10:50:00
2:20 PM,80.6,60.8,51,29.95,6.2,SSE,5.8,-,N/A,,Mostly Cloudy,150,2012-10-15 11:20:00
2:50 PM,78.8,60.8,54,29.95,6.2,South,8.1,-,N/A,,Mostly Cloudy,180,2012-10-15 11:50:00
3:20 PM,78.8,60.8,54,29.95,6.2,SSW,10.4,-,N/A,,Mostly Cloudy,200,2012-10-15 12:20:00
3:50 PM,77.0,62.6,61,29.95,6.2,SSW,8.1,-,N/A,,Mostly Cloudy,200,2012-10-15 12:50:00
4:20 PM,77.0,60.8,57,29.95,6.2,South,8.1,-,N/A,,Mostly Cloudy,180,2012-10-15 13:20:00
4:50 PM,77.0,62.6,61,29.92,6.2,East,5.8,-,N/A,,Mostly Cloudy,100,2012-10-15 13:50:00
5:20 PM,75.2,64.4,69,29.92,6.2,South,6.9,-,N/A,,Mostly Cloudy,190,2012-10-15 14:20:00
5:50 PM,75.2,66.2,73,29.95,6.2,Variable,3.5,-,N/A,,Mostly Cloudy,0,2012-10-15 14:50:00
6:20 PM,75.2,66.2,73,29.95,6.2,South,4.6,-,N/A,,Mostly Cloudy,190,2012-10-15 15:20:00
6:50 PM,73.4,66.2,78,29.95,6.2,Variable,3.5,-,N/A,,Mostly Cloudy,0,2012-10-15 15:50:00
7:20 PM,73.4,66.2,78,29.95,6.2,Calm,Calm,-,N/A,,Mostly Cloudy,0,2012-10-15 16:20:00
7:50 PM,73.4,66.2,78,29.98,6.2,Calm,Calm,-,N/A,,Scattered Clouds,0,2012-10-15 16:50:00
8:20 PM,71.6,66.2,83,29.98,6.2,Calm,Calm,-,N/A,,Scattered Clouds,0,2012-10-15 17:20:00
8:50 PM,69.8,66.2,88,29.98,6.2,Calm,Calm,-,N/A,,Scattered Clouds,0,2012-10-15 17:50:00
9:20 PM,69.8,66.2,88,30.01,6.2,Variable,3.5,-,N/A,,Scattered Clouds,0,2012-10-15 18:20:00
9:50 PM,69.8,66.2,88,30.04,6.2,Variable,3.5,-,N/A,,Scattered Clouds,0,2012-10-15 18:50:00
10:20 PM,69.8,64.4,83,30.04,6.2,Variable,2.3,-,N/A,,Scattered Clouds,0,2012-10-15 19:20:00
10:50 PM,69.8,64.4,83,30.04,6.2,Variable,2.3,-,N/A,,Scattered Clouds,0,2012-10-15 19:50:00
11:20 PM,69.8,64.4,83,30.04,6.2,Variable,3.5,-,N/A,,Scattered Clouds,0,2012-10-15 20:20:00
11:50 PM,68.0,64.4,88,30.04,6.2,Variable,3.5,-,N/A,,Scattered Clouds,0,2012-10-15 20:50:00